Flag for U.S.A. Weather past 2 weeks in Cincinnati, Ohio, U.S.A.

Now
68 °F

Fog.


Feels Like: 68 °F
Forecast: 71 / 89 °F
Wind: No wind

Location: Cincinnati Municipal Airport Lunken Field

Current Time: Aug 27, 2014 at 5:24:07 AM

Latest Report: Aug 27, 2014 at 4:53 AM


Visibility: 2 mi

Pressure: 30.08 "Hg

Humidity: 100%

Dew point: 68 °F

Location of CincinnatiLocation

Historic Weather in Cincinnati — Graph

°F

Cincinnati temperature yesterday

Maximum temperature yesterday: 90 °F (at 4:53 PM)
Minimum temperature yesterday: 68 °F (at 5:53 AM)
Average temperature yesterday: 77 °F

Past Weeks' High & Low Weather Summary

 TemperatureHumidityPressure
High91 °F (Aug 23, 4:53 PM)100% (Aug 19, 1:53 AM)30.14 "Hg (Aug 19, 1:53 AM)
Low50 °F (Aug 16, 3:53 AM)21% (Aug 15, 5:53 PM)29.78 "Hg (Aug 18, 6:53 PM)
Average74 °F78%29.97 "Hg
* Reported Aug 12 4:53 AM — Aug 27 3:59 AM, Cincinnati, Weather by CustomWeather, © 2014

Note: Actual official high and low records may vary slightly from our data, if they occured in-between our weather recording intervals... More about our weather records

Advertising

Cincinnati weather history for previous 24 hours

 ConditionsComfort  
Time TempWeatherWind HumidityBarometerVisibility
3:59 AM
Aug 27
68 °FFog.No wind100%30.09 "Hg1 mi
3:00 AM70 °FFog.No wind100%30.09 "Hg4 mi
1:59 AM70 °FFog.3 mph97%30.10 "Hg1 mi
12:53 AM72 °FFog.No wind97%30.09 "Hg4 mi
11:53 PM
Aug 26
71 °FFog.3 mph100%30.08 "Hg3 mi
10:53 PM73 °FFog.No wind97%30.07 "Hg4 mi
9:53 PM71 °FFog.5 mph100%30.06 "Hg5 mi
8:53 PM73 °FSunny.7 mph97%30.06 "Hg7 mi
7:53 PM76 °FThunderstorms. Mostly cloudy.7 mph82%30.06 "Hg6 mi
6:53 PM84 °FPartly sunny.No wind67%30.06 "Hg10 mi
5:53 PM89 °FPassing clouds.3 mph50%30.05 "Hg10 mi
4:53 PM90 °FScattered clouds.No wind48%30.06 "Hg10 mi
3:53 PM88 °FScattered clouds.3 mph55%30.07 "Hg10 mi
2:53 PM89 °FSunny.5 mph53%30.09 "Hg10 mi
1:53 PM88 °FPassing clouds.No wind55%30.11 "Hg10 mi
12:53 PM85 °FSunny.5 mph57%30.13 "Hg10 mi
11:53 AM84 °FSunny.No wind57%30.14 "Hg10 mi
10:53 AM81 °FSunny.3 mph65%30.14 "Hg10 mi
9:53 AM77 °FSunny.3 mph74%30.14 "Hg10 mi
8:53 AM73 °FSunny.No wind88%30.13 "Hg10 mi
7:53 AM69 °FFog.No wind96%30.12 "Hg5 mi
6:53 AM68 °FFog.No wind96%30.10 "Hg3 mi
5:53 AM68 °FFog.No wind96%30.08 "Hg5 mi
Weather by CustomWeather, © 2014

See weather overviewHow to use our weather pages